| time (UTC) | temp C | wind direction | speed KPH | gust KPH | rain 1hr cm | rain 24hr cm | rain mn cm | humidity % | barometer mb |
| 20260504215025 | 26 | 225 | 16.1 | 22.5 | 0.00 | 0.00 | 0.00 | 40 | 1014.6 |
| 20260504214022 | 26 | 175 | 12.9 | 17.7 | 0.00 | 0.00 | 0.00 | 40 | 1014.6 |
| 20260504213025 | 26 | 216 | 12.9 | 19.3 | 0.00 | 0.00 | 0.00 | 41 | 1014.7 |
| 20260504212042 | 26 | 179 | 16.1 | 25.7 | 0.00 | 0.00 | 0.00 | 41 | 1014.7 |
| 20260504211026 | 26 | 232 | 11.3 | 19.3 | 0.00 | 0.00 | 0.00 | 41 | 1014.8 |
| 20260504210022 | 26 | 225 | 16.1 | 22.5 | 0.00 | 0.00 | 0.00 | 41 | 1015.0 |
| 20260504205026 | 26 | 229 | 16.1 | 27.4 | 0.00 | 0.00 | 0.00 | 41 | 1015.0 |
| 20260504204022 | 26 | 199 | 12.9 | 22.5 | 0.00 | 0.00 | 0.00 | 41 | 1015.1 |
| 20260504203027 | 26 | 160 | 17.7 | 30.6 | 0.00 | 0.00 | 0.00 | 40 | 1015.2 |
| 20260504202024 | 26 | 211 | 14.5 | 22.5 | 0.00 | 0.00 | 0.00 | 41 | 1015.4 |
| 20260504201029 | 26 | 244 | 12.9 | 19.3 | 0.00 | 0.00 | 0.00 | 41 | 1015.6 |
| 20260504200023 | 26 | 233 | 12.9 | 20.9 | 0.00 | 0.00 | 0.00 | 40 | 1015.7 |
| 20260504195049 | 26 | 221 | 11.3 | 19.3 | 0.00 | 0.00 | 0.00 | 41 | 1015.9 |
| 20260504194126 | 26 | 236 | 9.7 | 19.3 | 0.00 | 0.00 | 0.00 | 44 | 1015.9 |
| 20260504193153 | 26 | 222 | 11.3 | 16.1 | 0.00 | 0.00 | 0.00 | 44 | 1016.1 |
| 20260504192025 | 26 | 234 | 14.5 | 19.3 | 0.00 | 0.00 | 0.00 | 43 | 1016.2 |
| 20260504191122 | 26 | 229 | 12.9 | 17.7 | 0.00 | 0.00 | 0.00 | 43 | 1016.3 |
| 20260504190036 | 26 | 187 | 11.3 | 16.1 | 0.00 | 0.00 | 0.00 | 44 | 1016.3 |
| 20260504185044 | 26 | 239 | 11.3 | 17.7 | 0.00 | 0.00 | 0.00 | 44 | 1016.5 |
| 20260504184058 | 26 | 132 | 17.7 | 32.2 | 0.00 | 0.00 | 0.00 | 45 | 1016.6 |
| 20260504183022 | 26 | 217 | 11.3 | 16.1 | 0.00 | 0.00 | 0.00 | 46 | 1016.7 |
| 20260504182048 | 25 | 223 | 11.3 | 16.1 | 0.00 | 0.00 | 0.00 | 46 | 1016.9 |
| 20260504181023 | 25 | 253 | 12.9 | 22.5 | 0.00 | 0.00 | 0.00 | 46 | 1017.1 |
| 20260504180028 | 26 | 226 | 16.1 | 20.9 | 0.00 | 0.00 | 0.00 | 44 | 1017.2 |
| 20260504175045 | 25 | 234 | 9.7 | 16.1 | 0.00 | 0.00 | 0.00 | 47 | 1017.3 |
| 20260504174030 | 25 | 229 | 11.3 | 22.5 | 0.00 | 0.00 | 0.00 | 45 | 1017.4 |
| 20260504173025 | 25 | 250 | 11.3 | 19.3 | 0.00 | 0.00 | 0.00 | 46 | 1017.6 |
| 20260504172020 | 25 | 230 | 12.9 | 20.9 | 0.00 | 0.00 | 0.00 | 46 | 1017.7 |
| 20260504171025 | 25 | 268 | 11.3 | 19.3 | 0.00 | 0.00 | 0.00 | 47 | 1017.8 |
| 20260504151022 | 21 | 232 | 14.5 | 20.9 | 0.00 | 0.00 | 0.00 | 57 | 1019.2 |
| 20260504141022 | 18 | 217 | 9.7 | 16.1 | 0.00 | 0.00 | 0.00 | 65 | 1019.7 |
| 20260504081026 | 10 | 0.0 | 0.0 | 0.00 | 0.00 | 0.00 | 79 | 1019.0 | |
| 20260504045044 | 11 | 180 | 1.6 | 3.2 | 0.00 | 0.00 | 0.00 | 77 | 1020.3 |
| 20260504044029 | 11 | 192 | 3.2 | 4.8 | 0.00 | 0.00 | 0.00 | 77 | 1020.3 |
| 20260504043024 | 12 | 193 | 3.2 | 4.8 | 0.00 | 0.00 | 0.00 | 76 | 1020.4 |
| 20260504042020 | 12 | 200 | 3.2 | 4.8 | 0.00 | 0.00 | 0.00 | 75 | 1020.4 |
| 20260504041025 | 11 | 215 | 1.6 | 3.2 | 0.00 | 0.00 | 0.00 | 77 | 1020.4 |
| 20260504040020 | 12 | 178 | 0.0 | 3.2 | 0.00 | 0.00 | 0.00 | 76 | 1020.3 |
| 20260504035026 | 12 | 185 | 1.6 | 4.8 | 0.00 | 0.00 | 0.00 | 76 | 1020.4 |
| 20260504034022 | 12 | 152 | 3.2 | 4.8 | 0.00 | 0.00 | 0.00 | 76 | 1020.5 |
| 20260504033027 | 12 | 180 | 1.6 | 4.8 | 0.00 | 0.00 | 0.00 | 78 | 1020.4 |
| 20260504032022 | 12 | 194 | 1.6 | 4.8 | 0.00 | 0.00 | 0.00 | 77 | 1020.5 |
| 20260504031028 | 12 | 168 | 6.4 | 6.4 | 0.00 | 0.00 | 0.00 | 76 | 1020.6 |
| 20260504030022 | 12 | 163 | 4.8 | 4.8 | 0.00 | 0.00 | 0.00 | 78 | 1020.7 |
| 20260504025028 | 12 | 0.0 | 0.0 | 0.00 | 0.00 | 0.00 | 81 | 1020.7 | |
| 20260504024024 | 12 | 148 | 0.0 | 3.2 | 0.00 | 0.00 | 0.00 | 77 | 1020.7 |
| 20260504023049 | 12 | 149 | 1.6 | 4.8 | 0.00 | 0.00 | 0.00 | 78 | 1020.8 |
| 20260504022024 | 12 | 0.0 | 0.0 | 0.00 | 0.00 | 0.00 | 75 | 1020.7 | |
| 20260504021022 | 13 | 0.0 | 0.0 | 0.00 | 0.00 | 0.00 | 75 | 1020.5 | |
| 20260504020025 | 13 | 0.0 | 0.0 | 0.00 | 0.00 | 0.00 | 71 | 1020.4 | |
| 20260504015024 | 13 | 0.0 | 0.0 | 0.00 | 0.00 | 0.00 | 68 | 1020.2 | |
| 20260504014025 | 14 | 0.0 | 0.0 | 0.00 | 0.00 | 0.00 | 66 | 1020.1 | |
| 20260504013021 | 14 | 0.0 | 0.0 | 0.00 | 0.00 | 0.00 | 66 | 1020.0 | |
| 20260504012026 | 15 | 0.0 | 0.0 | 0.00 | 0.00 | 0.00 | 63 | 1019.8 | |
| 20260504011022 | 15 | 0.0 | 0.0 | 0.00 | 0.00 | 0.00 | 62 | 1019.7 | |
| 20260504010028 | 16 | 137 | 0.0 | 1.6 | 0.00 | 0.00 | 0.00 | 60 | 1019.6 |
| 20260504005022 | 17 | 186 | 0.0 | 3.2 | 0.00 | 0.00 | 0.00 | 58 | 1019.5 |
| 20260504004029 | 17 | 211 | 3.2 | 6.4 | 0.00 | 0.00 | 0.00 | 52 | 1019.4 |
| 20260504003023 | 18 | 222 | 4.8 | 8.0 | 0.00 | 0.00 | 0.00 | 48 | 1019.5 |
| 20260504002028 | 19 | 215 | 3.2 | 3.2 | 0.00 | 0.00 | 0.00 | 45 | 1019.6 |
| 20260504001045 | 20 | 229 | 3.2 | 4.8 | 0.00 | 0.00 | 0.00 | 42 | 1019.6 |
| 20260504000020 | 21 | 229 | 4.8 | 6.4 | 0.00 | 0.00 | 0.00 | 40 | 1019.7 |
| 20260503235147 | 21 | 4.8 | 6.4 | 0.00 | 0.00 | 0.00 | 38 | 1019.8 | |
| 20260503234020 | 21 | 268 | 4.8 | 8.0 | 0.00 | 0.00 | 0.00 | 38 | 1019.8 |
| 20260503233026 | 21 | 308 | 4.8 | 6.4 | 0.00 | 0.00 | 0.00 | 38 | 1019.9 |
| 20260503232133 | 21 | 235 | 8.0 | 11.3 | 0.00 | 0.00 | 0.00 | 37 | 1020.0 |
| 20260503231026 | 22 | 276 | 6.4 | 9.7 | 0.00 | 0.00 | 0.00 | 36 | 1020.1 |
| 20260503230032 | 22 | 271 | 6.4 | 9.7 | 0.00 | 0.00 | 0.00 | 36 | 1020.1 |
| 20260503225108 | 21 | 300 | 9.7 | 12.9 | 0.00 | 0.00 | 0.00 | 36 | 1020.1 |
| 20260503224134 | 22 | 304 | 6.4 | 9.7 | 0.00 | 0.00 | 0.00 | 35 | 1020.1 |
| 20260503223038 | 22 | 299 | 6.4 | 14.5 | 0.00 | 0.00 | 0.00 | 34 | 1020.3 |
| 20260503222119 | 22 | 301 | 4.8 | 11.3 | 0.00 | 0.00 | 0.00 | 35 | 1020.3 |
| 20260503221049 | 22 | 318 | 8.0 | 11.3 | 0.00 | 0.00 | 0.00 | 35 | 1020.4 |
| 20260503220115 | 22 | 278 | 9.7 | 14.5 | 0.00 | 0.00 | 0.00 | 34 | 1020.5 |